ARIANE 5 R/B, 41309

Orbit data source: Space-Track

ARIANE 5 R/B, 41309 is space debris in HEO originally from a launch on Wed, 27 Jan 2016 UTC launched from the French Guiana (FRGUI). Debris objects in space refer to the collection of defunct objects orbiting the Earth. Examples of debris include non-operational satellites, rocket bodies, and fragments generated from explosions, collisions, or faulty payload assembly.

Loading next visibility...
Identifier
41309, 2016-004B
Orbit
HEO
Country
Flag of FRFR
Related business
Manufacturer
Airbus Safran
Mission
Spacecraft
Bus & Motor
ESC-A, Unknown motor
Mass
~5,000 kg wet, ~5,000 kg dry
Launch date (UTC)
2016-01-27 (10 years ago)
Launch vehicle
Unknown
Launch site
French Guiana (FRGUI)
Object type
Payload
Rocket body
Debris
Shape & HBR
Cyl + 1 Nozzle, 3.5 m
Radar Cross Section
41.627 m², Large (>1 m²)

Expand to show TLE details & history
Last TLE update: 17 hours ago

TLE from 17 hours ago
0 ARIANE 5 R/B
1 41309U 16004B   25258.55701649  .00003021  00000-0  18789-2 0  9998
2 41309   0.5251 208.3660 7181873 315.6165 243.9438  2.38557136 82013
Epoch: 2025-09-15T13:22Z
TLE epoch observation values (Epoch: 2025-09-15T13:22:06.224Z)
Latitude
0.23968°
Longitude
164.71524°
Altitude
30,617.31 km
Speed
2.168 km/s
True Right ascension
00h 00m 00s
True Declination
0° 14' 22"
Sunlit
Object was in full shadow at epoch
Visualization orbit readout
Latitude
Unknown
Longitude
Unknown
Altitude
Unknown
Speed
Unknown
Apparent Right ascension
Unknown
Apparent Declination
Unknown
Sunlit
N/A
Visualization observer readout
Local Sidereal Time
23:30:29
Azimuth
Unknown
Elevation
Unknown
Doppler factor
Unknown
Orbital elements
Apogee altitude
34,282.958 km
Perigee altitude
290.992 km
Semi-major axis
23,665.112 km
Eccentricity
0.71819
Inclination
0.5251°
RAAN
208.366°
Arg. of periapsis
315.6165°
True anomaly
196.05074°
Mean anomaly
243.9438°
Eccentric anomaly
218.38984°
Mean motion
0.59618 °/min
Orbital period
603.84 mins
BSTAR
0.0018789
Loading maneuver chart data...
Computing Atmospheric mass density...
Loading historical data...
Loading historical data...
Loading historical data...
Loading historical data...
Loading historical data...
Loading historical data...
Loading historical data...
Other satellites on launch #4 in the year 2016 (2016-01-27 UTC)

Documentation

Showing up to 5 results
|